Погода в Фергане

Погода в Фергане : погода сейчас, прогноз погоды и архив. Всё, что Вы хотите узнать о погоде в Фергане!

Поиск расширенной информации на нашем сайте:

Другие новости

Новости СМИ2

Главная страница сайта

Новости сайта

02.10.2013

Напоминаем, что на нашем новом сайте вы можете получить высокодетализированные прогнозы погоды по пунктам России, СНГ и мира (включающие важные для авиации метеовеличины, такие как направление и скорость ветра, видимость, явления погоды, количество и форма облачности, нижняя и верхняя граница облачности), а также ознакомиться с разнообразными материалами по авиационной метеорологии и подборкой полезных ссылок на эту тему.

Сайт Метеоцентр.Азия посвящён разработке технологий оптимизации авиаметеорологического обслуживания, включая проектирование и перспективное создание нескольких автоматизированных авиаметеорологических систем:
- система выпуска высокодетальных прогностических карт явлений погоды для нижнего воздушного пространства по России и ближнему зарубежью;
- система верификации прогнозов TAF (выпускаемых синоптиками официальных АМСГ РФ и ближнего зарубежья) и AUTOTAF (выпускаемых сайтом Метеоцентр.Азия) - выявление ошибок, онлайн-сопоставление с фактической погодой METAR, автоматическое внесение коррективов в прогнозы при резком отклонении фактической погоды от прогноза, подсчёт оправдываемости прогнозов по элементам и в целом;
- система обработки, анализа и отображения авиаметеорологической информации для применения провайдерами метеорологической информации.

Рекомендуем: Подробная информация мастер тур на нашем сайте.

Погода в Фергане - сегодня

Время (UTC), дата Ветер
(°,м/с) 
Видим.   Явления Облачность Т
(°С)
Тd
(°С)
f(%) Тe
(°С)
Pmin
(гПа)
dP
(гПа)
Po
(мм)
O2
(г/м3)
Тmin Tmax R s Состояние
почвы
06 25.05.17 010 (С) 20000 м    3/1 1000 м средняя 
[Cu med, cong|Ac lent]
+32.4 +14.5 34 +42  1005.3  -0.1  707  252  +19.6         
09 25.05.17 360 (С) 10 км    5/3 1000 м средняя, верхняя 
[Cu med, cong|Ac lent|Cs]
+34.5 +14.5 30 +44  1003.6  -1.2  707  250           
12 25.05.17 тихо ()   10 км    9/4 600 м кучево-дожд., средняя, верхняя 
[Cb cap|Ac cast|Cs]
+33.2 +18.5 42 +51  1003.8  0.1  707  250           
18 25.05.17 250 (З) н/о  {гроза, ливн. осадки}  9/0 верхняя 
[Ci fib]
+23.3 +12.7 51 +30  1008.3  0.4  708  260    +35.5  0.0     
21 25.05.17 280 (З) н/о  гроза без осадков  10/4 600 м кучево-дожд., средняя, верхняя 
[Cb cap|Ac As|Ci fib]
+21.1 +12.2 57 +27  1009.7  0.9  709  263           
00 26.05.17 360 (С) 20000 м  {гроза}  9/0 средняя, верхняя 
[Ac cast|Cc]
+19.8 +14.9 73 +31  1012.5  2.4  711  264           
03 26.05.17 тихо ()   20000 м    8/0 средняя 
[Ac lent]
+23.5 +15 59 +34  1012.2  0.4  711  261           
06 26.05.17 050 (СВ) 20000 м    3/1 1000 м средняя 
[Cu med, cong|Ac cast]
+27.4 +14.9 46 +37  1011.3  711  257  +19.2         
09 26.05.17 060 (СВ) 10 км    3/1 1000 м средняя 
[Cu med, cong|Ac cast]
+31.1 +13 33 +38  1009.4  -1.1  710  254           
12 26.05.17 310 (СЗ) 10 км    4/3 1000 м верхняя 
[Sc|Ci ing]
+32.2 +14.7 35 +42  1008  -1  709  253           
18 26.05.17 тихо ()   н/о    ясно 
+22.9 +15.1 61 +33  1011.5  0.4  710  261    +32.3       
21 26.05.17 130 (ЮВ) н/о    ясно 
+21 +14.1 65 +30  1011.9  -0.1  710  263           
03 27.05.17 130 (ЮВ) 20000 м    10/0 верхняя 
[Ci fib]
+24 +14.2 54 +33  1011.1  0.9  710  260           
06 27.05.17 160 (Ю) 20000 м    3/1 1000 м средняя, верхняя 
[Cu med, cong|Ac cuf|Ci fib]
+29.9 +12.2 34 +35  1009.4  -0.5  710  255  +19         
09 27.05.17 090 (В) 20000 м    3/1 1000 м средняя 
[Cu med, cong|Ac cast]
+33.6 +14.7 32 +43  1006.8  -1.5  709  251           
12 27.05.17 тихо ()   20000 м    8/3 1000 м средняя, верхняя 
[Cu med, cong|Ac cuf|Ci sp]
+33 +15.1 34 +43  1006.6  -0.4  708  252           
18 27.05.17 140 (ЮВ) н/о    6/0 средняя, верхняя 
[Ac lent|Ci fib]
+23.3 +14.3 57 +32  1008.2  0.7  708  260    +34       
21 27.05.17 150 (ЮВ) н/о    ясно 
+21.5 +11.9 54 +27  1007.9  -0.8  708  262           
03 28.05.17 тихо ()   20000 м    3/1 1000 м верхняя 
[Cu hum|Ci fib]
+27.1 +14.3 45 +36  1006.8  0.4  708  256           
06 28.05.17 330 (СЗ) 20000 м    6/3 1000 м средняя, верхняя 
[Cu med, cong|Ac cuf|Ci sp]
+28.9 +15 43 +39  1007.1  0.7  708  255  +18.9         
09 28.05.17 310 (СЗ) 20000 м    8/3 1000 м средняя, верхняя 
[Cu med, cong|Ac trans|Ci sp]
+32.2 +14.2 34 +41  1004.9  -1.5  707  252           
12 28.05.17 120 (ЮВ) 10 км    9/4 1000 м кучево-дожд., средняя, верхняя 
[Cb cap|Ac cast|Cs]
+32 +13.9 33 +40  1004.2  -0.6  707  252           
18 28.05.17 150 (ЮВ) н/о    ясно 
+24 +11.7 46 +29  1006.7  707  260    +32.5       
21 28.05.17 тихо ()   н/о    ясно 
+20.3 +11.7 58 +25  1008.5  0.8  708  263           
00 29.05.17 тихо ()   20000 м    ясно 
+18 +10.4 61 +21  1008.8  -0.2  708  266           
Время (UTC), дата Ветер
(°,м/с) 
Видим.   Явления Облачность Т
(°С)
Тd
(°С)
f(%) Тe
(°С)
Pmin
(гПа)
dP
(гПа)
Po
(мм)
O2
(г/м3)
Тmin Tmax R s Состояние
почвы

Для получения пояснительной информации подведите курсор к названию столбца.

ПОГОДА в Фергане - архив

Всё, что Вы хотите узнать о погоде в Фергане - удобно и подробно!

Выберите нужную дату (начиная с 1 января 2015* года) и нажмите кнопку "Найти".
Будут отображены архивные сводки погоды по пункту Фергана, начиная с указанной даты.


Отображать данные в формате CSV (для использования в таблицах Excel)


Внимание! Наш архив погоды предназначен исключительно для личного некоммерческого использования в познавательных целях. Если Вам необходимы официальные справки о состоянии погоды (для производственных, юридических, коммерческих и т.п. целей), обращайтесь в органы Росгидромета.

*Примечание: данная дата относится к архиву по метеостанциям СССР (Россия, СНГ, Балтия).
Архив по метеостанциям Зарубежной Европы и Азии (кроме Китая) хранится 10 дней, по другим регионам земного шара (Китай, Африка, Америка, Австралия, Океания) - 1 день.

Фергана - район местоположения метеостанции


Название, широта, долгота, высота метеостанции:
Фергана 40.4°ш. 71.8°д. 605 м над ур. моря [Узбекистан]

Дополнительная информация

В oтличие oт бoльшинства пoгoдных сайтoв мы публикуем пoдрoбную метеoинфoрмацию в детальнoм прoфессиoнальнoм фoрмате.

Характеристики температуры и влажнoсти вoздуха измеряются на высoте 2 м в тени вдали oт зданий и деревьев.
Скoрoсть ветра измеряется на высoте 10 м (на урoвне рoста челoвека скoрoсть ветра ниже в 1.5-2 раза). Если метеoстанция нахoдится в гoрoде или в лесу, тo скoрoсть ветра занижена на 2-4 м/с пo сравнению с oткрытым местoм. Скoрoсть ветра над акватoриями крупных рек и oзёр, а также на вершинах хoлмoв на 2-5 м/с выше, чем в oбычных услoвиях.
Атмoсфернoе давление в разных тoчках местнoсти мoжет значительнo oтличаться oт давления на метеoстанции, в зависимoсти oт услoвий рельефа (при пoдъёме на 10 м давление пoнижается примернo на 1 мм рт.ст.).